Yakima, WA
on Friday, January 4, 2013

Friday
Previous Day Next Day
Daily Summary
 ActualAverageRecord
Temperature
Mean Temperature °F 29°F  
Max Temperature 30°F 36°F 57°F (1990)
Min Temperature 18°F 22°F -14°F (2004)
Degree Days
Heating Degree Days 41 36  
Month to date heating degree days 152 147  
Since 1 July heating degree days 2366 2810  
Cooling Degree Days 0 0  
Month to date cooling degree days 0 0  
Year to date cooling degree days 0 0  
Moisture
Dew Point 21°F   
Average Humidity 77    
Maximum Humidity 85    
Minimum Humidity 69    
Precipitation
Precipitation 0.00 in 0.04 in 0.39 in (2010)
Month to date precipitation 0.00 0.17  
Year to date precipitation 0.00 0.17  
Snow
Snow 0.00 in 0.30 in 1.30 in (1998)
Month to date snowfall 0.0 1.0  
Year to date snowfall 0.0 1.0  
Since 1 July snowfall 14.2 14.0  
Snow Depth 0.00 in   
Wind
Wind Speed 4 mph   
Max Wind Speed 8 mph   
Max Gust Speed 18 mph   
Visibility 8 miles   
Events     

Key: T is trace of precipitation, MM is missing value
Source: NWS Daily Summary
Time(PST)TemperatureDew PointHumidity Pressure Visibility Wind DirectionWind SpeedGust SpeedPrecipitationEvents Conditions
12:22 AM 24.8°F 17.6°F 74% 30.37 in 7.0 miles West 3.5 mph - N/A   Overcast
12:34 AM 24.8°F 19.4°F 80% 30.37 in 7.0 miles Calm Calm - N/A   Mostly Cloudy
12:53 AM 21.9°F 18.0°F 85% 30.42 in 7.0 miles West 3.5 mph - N/A   Scattered Clouds
1:53 AM 19.9°F 16.0°F 85% 30.43 in 8.0 miles WSW 4.6 mph - N/A   Scattered Clouds
2:53 AM 19.9°F 16.0°F 85% 30.43 in 9.0 miles West 4.6 mph - N/A   Overcast
3:12 AM 21.2°F 17.6°F 86% 30.38 in 8.0 miles WNW 5.8 mph - N/A   Overcast
3:53 AM 24.1°F 19.9°F 84% 30.43 in 8.0 miles West 4.6 mph - N/A   Overcast
4:53 AM 26.1°F 19.9°F 78% 30.43 in 10.0 miles Calm Calm - N/A   Overcast
5:53 AM 26.1°F 21.0°F 81% 30.43 in 10.0 miles Calm Calm - N/A   Overcast
6:53 AM 26.1°F 19.9°F 78% 30.44 in 10.0 miles West 3.5 mph - N/A   Overcast
7:53 AM 26.1°F 19.9°F 78% 30.45 in 10.0 miles West 4.6 mph - N/A   Overcast
8:53 AM 27.0°F 19.9°F 75% 30.45 in 10.0 miles Calm Calm - N/A   Overcast
9:53 AM 28.0°F 19.0°F 69% 30.48 in 10.0 miles Calm Calm - N/A   Overcast
10:53 AM 28.0°F 19.0°F 69% 30.48 in 10.0 miles West 3.5 mph - N/A   Overcast
11:53 AM 28.9°F 19.0°F 67% 30.46 in 10.0 miles WSW 3.5 mph - N/A   Overcast
12:53 PM 28.9°F 19.9°F 69% 30.44 in 10.0 miles Calm Calm - N/A   Overcast
1:39 PM 30.2°F 21.2°F 69% 30.39 in 7.0 miles NNW 3.5 mph - N/A   Overcast
1:53 PM 30.0°F 21.9°F 72% 30.44 in 7.0 miles WNW 3.5 mph - N/A   Overcast
2:53 PM 30.0°F 21.9°F 72% 30.44 in 6.0 miles WSW 3.5 mph - N/A   Haze
3:53 PM 30.0°F 21.9°F 72% 30.45 in 6.0 miles SW 5.8 mph - N/A   Haze
4:53 PM 28.9°F 23.0°F 78% 30.45 in 7.0 miles SW 4.6 mph - N/A   Overcast
5:53 PM 28.9°F 23.0°F 78% 30.45 in 7.0 miles WSW 6.9 mph - N/A   Overcast
6:53 PM 28.9°F 23.0°F 78% 30.44 in 7.0 miles WSW 3.5 mph - N/A   Overcast
7:53 PM 28.9°F 23.0°F 78% 30.45 in 6.0 miles WSW 4.6 mph - N/A   Haze
8:53 PM 28.0°F 24.1°F 85% 30.45 in 5.0 miles WSW 5.8 mph - N/A   Overcast
9:53 PM 28.0°F 23.0°F 81% 30.45 in 7.0 miles SW 3.5 mph - N/A   Overcast
10:35 PM 28.4°F 23.0°F 80% 30.40 in 7.0 miles WSW 5.8 mph - N/A   Overcast
10:53 PM 28.9°F 23.0°F 78% 30.44 in 7.0 miles WSW 5.8 mph - N/A   Overcast
11:00 PM 28.4°F 23.0°F 80% 30.40 in 7.0 miles WSW 5.8 mph - N/A   Overcast
11:53 PM 28.9°F 23.0°F 78% 30.44 in 7.0 miles WSW 3.5 mph - N/A   Overcast
Moon Phase
Jan. 04 Jan. 04 Jan. 11 Jan. 18 Jan. 26
Sunrise:07:46 AM (PST) Moon Rise:No Moon Rise/
Sunset:04:28 PM (PST) Moon Set:11:03 AM (PST)1/4

Copyright © 2014 The Weather Underground, Inc.